Loisir ou Compétition : Rejoignez un Club de la Fédération

Résultats

GRAND PRIX D'AGY du 2 Février 2020

AGY

FS Hommes

Jury de Compétition

Délégué Technique :
MISSILLIER TOM (MB)
D.T. Adjoint :
 
Dir. Epreuve :
PETIT ELODIE (MB)

Caractéristiques de la Piste

Piste :
AGY
Distance :
5 km
Point Haut :
 
Point Bas :
 
Montée Tot. :
 
Montée Max. :
 
Homologation :
 

Pénalité Appliquée :
 
Coefficient :
 

Catégorie :
U15
Style :
L
Clt Dos Clt/Cat Code An Nom Prénom Com Club Temps Ecart Points
Classés
1 167 1/U15 FFS2671671 2005 DUPONT ILANN MJ OLYMP MT DOR 15:38.7 00:00.0
2 241 2/U15 FFS2686681 2005 DELOCHE LINO MB SC GD BORNAN 15:45.2 00:06.5
3 240 3/U15 FFS2676910 2005 CLAVEL SIMON MB CS LA CLUSAZ 16:03.4 00:24.7
4 239 4/U15 FFS2667744 2005 BIZZOCCHI ESTEBAN MB SC D'AGY 16:16.0 00:37.3
5 237 5/U15 FFS2681171 2005 LUZET HUGO MB CS LA CLUSAZ 16:18.1 00:39.4
6 221 6/U15 FFS2691557 2006 PERRILLAT COLLOMB MARIO MB SC GD BORNAN 16:19.5 00:40.8
7 235 7/U15 FFS2686695 2005 PERRILLAT BOTTONET JUDICA MB SC GD BORNAN 16:20.9 00:42.2
8 212 8/U15 FFS2670538 2006 SEIGNEUR NOE MB VILLARD/BOEG 16:26.6 00:47.9
9 233 9/U15 FFS2686939 2005 GRENARD MAX MB SCNP ROCHOIS 16:36.9 00:58.2
10 238 10/U15 FFS2686663 2005 PERRILLAT BOITEUX ANTHONY MB SC GD BORNAN 16:45.3 01:06.6
11 226 11/U15 FFS2691553 2006 LESPINE QUENTIN MB SC GD BORNAN 16:46.3 01:07.6
12 225 12/U15 FFS2691997 2006 FAVRE NILS MB DRAGONS ANNY 16:48.5 01:09.8
13 230 13/U15 FFS2692545 2006 BIANCOLLI LUIGI MB CNG 16:49.0 01:10.3
14 242 14/U15 FFS2686242 2005 VIGUIER QUENTIN MB CS LA CLUSAZ 16:52.6 01:13.9
15 231 15/U15 FFS2691996 2006 CALANDRY JOHAN MB DRAGONS ANNY 16:53.8 01:15.1
16 182 16/U15 FFS2696236 2005 MONGELLAZ JULES MB SC CONTAMINE 16:55.9 01:17.2
17 232 17/U15 FFS2686542 2005 PEYRET TILIEN MB DRAGONS ANNY 16:57.2 01:18.5
18 236 18/U15 FFS2686793 2005 MARIE ADELIN MB SC D'AGY 16:57.9 01:19.2
19 220 19/U15 FFS2681175 2006 MERMILLOD BLARDET CYPRIEN MB CS LA CLUSAZ 17:03.8 01:25.1
20 229 20/U15 FFS2666342 2005 OUVRIER BUFFET JULES MB CS LA CLUSAZ 17:06.9 01:28.2
21 203 21/U15 FFS2696623 2006 LAVY ARTHUR MB DRAGONS ANNY 17:08.0 01:29.3
22 217 22/U15 FFS2696947 2006 BOUCHEX BELLOMIE KLEO MB CS MEGEVE 17:10.8 01:32.1
23 234 23/U15 FFS2666324 2005 FAVRE FELIX KILLIAN MB SC GD BORNAN 17:13.7 01:35.0
24 169 24/U15 FFS2660043 2005 NORMAND JOAO SA CN REVARD 17:18.6 01:39.9
25 199 25/U15 FFS2691998 2006 LOYER ARMAN MB DRAGONS ANNY 17:24.4 01:45.7
26 222 26/U15 FFS2686539 2005 LACROIX MATTHIAS MB DRAGONS ANNY 17:25.0 01:46.3
27 211 27/U15 FFS2687035 2005 CORNU MATHIEU MB CS CHAMONIX 17:26.4 01:47.7
28 216 28/U15 FFS2693695 2006 PINGET LORIS MB VILLARD/BOEG 17:34.6 01:55.9
29 198 29/U15 FFS2672513 2006 HUDRY VALENTIN MB SC GD BORNAN 17:35.5 01:56.8
30 206 30/U15 FFS2688043 2005 MAGNIEZ OSCAR MB DRAGONS ANNY 17:35.7 01:57.0
31 227 31/U15 FFS2692252 2006 MENCIER ARTHUR MB SCNP ROCHOIS 17:37.8 01:59.1
32 219 32/U15 FFS2692554 2005 ZAVARISE NOAH MB CNG 17:38.9 02:00.2
33 192 33/U15 FFS2693694 2006 MARTIN LUBIN MB VILLARD/BOEG 17:44.0 02:05.3
34 215 34/U15 FFS2686543 2005 ROMERI NATHAN MB DRAGONS ANNY 17:44.8 02:06.1
35 210 35/U15 FFS2674953 2006 BETEND BAPTISTE MB CS ARGENTIER 17:45.5 02:06.8
35 214 35/U15 FFS2692552 2005 PETROD BASTIEN MB CNG 17:45.5 02:06.8
37 218 37/U15 FFS2669077 2006 BOUCHEX BELLOMIE JEREMIE MB CS MEGEVE 17:45.6 02:06.9
38 207 38/U15 FFS2679388 2006 GILARDONI LOUISON MB CS MEGEVE 17:49.3 02:10.6
39 205 39/U15 FFS2687102 2005 SYLVESTRE BARON PAUL MB SCNP ROCHOIS 17:52.3 02:13.6
40 209 40/U15 FFS2687749 2006 PEALA NILS MB DRAGONS ANNY 18:03.0 02:24.3
41 193 41/U15 FFS2687034 2005 FIVEL DEMORET HUGO MB SC CONTAMINE 18:04.6 02:25.9
42 201 42/U15 FFS2691437 2006 GANDIGLIO TIBO MB PRAZ LYS-SOM 18:06.8 02:28.1
43 191 43/U15 FFS2675891 2006 ROUX MATHIS MB CS MEGEVE 18:18.3 02:39.6
44 204 44/U15 FFS2686940 2005 LEVET PROSPER MB SCNP ROCHOIS 18:19.6 02:40.9
45 228 45/U15 FFS2686795 2005 DELERCE THIBAULT MB SC D'AGY 18:32.2 02:53.5
46 194 46/U15 FFS2690481 2005 THABUIS BASILE MB VILLARD/BOEG 18:34.1 02:55.4
47 223 47/U15 FFS2686538 2005 JOMIER LOIS MB DRAGONS ANNY 18:34.3 02:55.6
48 202 48/U15 FFS2691548 2006 GODINAT ETHAN MB SC GD BORNAN 18:40.1 03:01.4
49 181 49/U15 FFS2689955 2006 BREMOND NATHAN MB SC GD BORNAN 18:44.7 03:06.0
50 189 50/U15 FFS2691704 2006 REYMOND NOLAN MB SALLANCHES 18:46.0 03:07.3
51 197 51/U15 FFS2681304 2005 PERSONNAZ LOAN MB DRAGONS ANNY 18:51.0 03:12.3
52 208 52/U15 FFS2672036 2006 BIZZOCCHI ENNIO MB SC D'AGY 18:59.9 03:21.2
53 190 53/U15 FFS2688574 2006 TOCQUEVILLE LOUIS MB CS LA CLUSAZ 19:00.5 03:21.8
54 184 54/U15 FFS2701302 2006 DEXPERT MALO MB SC GD BORNAN 19:00.6 03:21.9
55 177 55/U15 FFS2702100 2006 NOZIN KILIAN MB SCNP ROCHOIS 19:15.0 03:36.3
56 200 56/U15 FFS2680344 2005 DELERCE GASPARD MB LES GETS S.C 19:18.0 03:39.3
57 195 57/U15 FFS2686260 2005 BOSSUT AUGUSTIN MB PRAZ LYS-SOM 19:18.7 03:40.0
58 178 58/U15 FFS2679226 2006 GRZELAK AYMERIC MB CS MEGEVE 19:22.7 03:44.0
59 179 59/U15 FFS2691439 2006 PATRY YANIS MB PRAZ LYS-SOM 19:23.4 03:44.7
60 186 60/U15 FFS2702394 2006 BOLLARD ROMAIN MB CNG 19:23.6 03:44.9
61 188 61/U15 FFS2676738 2005 CHETAIL JULES MB CS MEGEVE 19:27.7 03:49.0
62 180 62/U15 FFS2671164 2006 MESER BALET NATHAN MB VILLARD/BOEG 19:28.6 03:49.9
63 224 63/U15 FFS2697607 2006 ALLOT CAUCHARD BASILE MB CNG 19:41.9 04:03.2
64 170 64/U15 FFS2692694 2006 BLANCHET CACHAT ROSSET AL MB SC D'AGY 19:50.4 04:11.7
65 164 65/U15 FFS2691434 2006 BOUCHET MAEL MB PRAZ LYS-SOM 19:53.8 04:15.1
66 196 66/U15 FFS2678687 2005 MILLET DIWAN MB SCNP ROCHOIS 19:56.4 04:17.7
67 173 67/U15 FFS2693690 2006 GOVAERTS COME MB VILLARD/BOEG 20:14.0 04:35.3
68 174 68/U15 FFS2688678 2005 REPELLIN CHARLES MB VILLARD/BOEG 20:16.6 04:37.9
69 176 69/U15 FFS2686033 2006 CABRERA GAEL MB CS ARGENTIER 20:30.1 04:51.4
70 185 70/U15 FFS2693681 2006 BRETONNIERE ANTON MB VILLARD/BOEG 20:32.0 04:53.3
71 168 71/U15 FFS2692110 2006 BERGOMI FABIO MB CS CHAMONIX 20:39.1 05:00.4
72 171 72/U15 FFS2692777 2006 MARUZZI LEO MB CS ARGENTIER 20:55.4 05:16.7
73 162 73/U15 FFS2693696 2006 STALDER ANTOINE MB VILLARD/BOEG 21:08.0 05:29.3
74 187 74/U15 FFS2691561 2006 REMONT HUGO MB SC GD BORNAN 21:10.1 05:31.4
75 175 75/U15 FFS2682273 2006 SORDET JULES MB VILLARD/BOEG 21:23.9 05:45.2
76 165 76/U15 FFS2693692 2006 JACQUELINE LEO MB VILLARD/BOEG 21:34.7 05:56.0
77 163 77/U15 FFS2674779 2006 HENRY MAX MB CHABLAIS NOR 21:46.4 06:07.7
78 161 78/U15 FFS2692691 2006 PERY AUBIN MB SC D'AGY 25:05.7 09:27.0
79 166 79/U15 FFS2699088 2006 DELAY TIMOTHEE MB SC D'AGY 26:27.9 10:49.2
Non partants
172 FFS2687856 2005 VEISY KILLIAN MB EN HT GIFFRE
183 FFS2703750 2006 DUVILLIER ROMAIN MB LES GETS S.C
213 FFS2690844 2005 HAEBERLI ARTHUR MB CS LA CLUSAZ